| time (UTC) | temp C | wind direction | speed KPH | gust KPH | rain 1hr cm | rain 24hr cm | rain mn cm | humidity % | barometer mb |
| 20260504211918 | 18 | 48 | 1.6 | 11.3 | 0.00 | 0.00 | 0.00 | 46 | 1006.4 |
| 20260504211418 | 18 | 34 | 1.6 | 12.9 | 0.00 | 0.00 | 0.00 | 46 | 1006.4 |
| 20260504210415 | 19 | 117 | 3.2 | 16.1 | 0.00 | 0.00 | 0.00 | 44 | 1006.4 |
| 20260504205914 | 19 | 348 | 3.2 | 9.7 | 0.00 | 0.00 | 0.00 | 41 | 1006.4 |
| 20260504205413 | 19 | 186 | 3.2 | 11.3 | 0.00 | 0.00 | 0.00 | 42 | 1006.4 |
| 20260504204913 | 18 | 182 | 3.2 | 11.3 | 0.00 | 0.00 | 0.00 | 41 | 1006.4 |
| 20260504204414 | 19 | 135 | 3.2 | 14.5 | 0.00 | 0.00 | 0.00 | 41 | 1006.5 |
| 20260504204147 | 19 | 194 | 4.8 | 20.9 | 0.00 | 0.00 | 0.00 | 41 | 1006.5 |
| 20260504203409 | 19 | 355 | 3.2 | 20.9 | 0.00 | 0.00 | 0.00 | 43 | 1006.5 |
| 20260504202909 | 18 | 128 | 1.6 | 12.9 | 0.00 | 0.00 | 0.00 | 44 | 1006.6 |
| 20260504202408 | 18 | 117 | 3.2 | 14.5 | 0.00 | 0.00 | 0.00 | 43 | 1006.7 |
| 20260504201908 | 19 | 26 | 1.6 | 16.1 | 0.00 | 0.00 | 0.00 | 42 | 1006.5 |
| 20260504201408 | 20 | 340 | 1.6 | 16.1 | 0.00 | 0.00 | 0.00 | 41 | 1006.6 |
| 20260504200907 | 20 | 124 | 1.6 | 6.4 | 0.00 | 0.00 | 0.00 | 42 | 1006.6 |
| 20260504200408 | 20 | 124 | 1.6 | 9.7 | 0.00 | 0.00 | 0.00 | 44 | 1006.6 |
| 20260504200139 | 19 | 103 | 1.6 | 9.7 | 0.00 | 0.00 | 0.00 | 42 | 1006.6 |
| 20260504195407 | 19 | 238 | 3.2 | 16.1 | 0.00 | 0.00 | 0.00 | 44 | 1006.8 |
| 20260504194905 | 18 | 269 | 4.8 | 16.1 | 0.00 | 0.00 | 0.00 | 43 | 1006.7 |
| 20260504194405 | 19 | 154 | 4.8 | 12.9 | 0.00 | 0.00 | 0.00 | 42 | 1006.9 |
| 20260504193907 | 18 | 15 | 3.2 | 12.9 | 0.00 | 0.00 | 0.00 | 43 | 1006.9 |
| 20260504193405 | 18 | 261 | 1.6 | 11.3 | 0.00 | 0.00 | 0.00 | 45 | 1006.8 |
| 20260504193136 | 18 | 141 | 3.2 | 12.9 | 0.00 | 0.00 | 0.00 | 45 | 1007.0 |
| 20260504192636 | 18 | 5 | 3.2 | 12.9 | 0.00 | 0.00 | 0.00 | 44 | 1007.0 |
| 20260504191906 | 18 | 304 | 3.2 | 14.5 | 0.00 | 0.00 | 0.00 | 46 | 1007.0 |
| 20260504191628 | 18 | 222 | 4.8 | 25.7 | 0.00 | 0.00 | 0.00 | 43 | 1007.1 |
| 20260504191128 | 19 | 246 | 3.2 | 25.7 | 0.00 | 0.00 | 0.00 | 44 | 1007.1 |
| 20260504190629 | 18 | 202 | 1.6 | 11.3 | 0.00 | 0.00 | 0.00 | 45 | 1007.1 |
| 20260504185857 | 18 | 57 | 3.2 | 16.1 | 0.00 | 0.00 | 0.00 | 45 | 1007.1 |
| 20260504185355 | 18 | 334 | 3.2 | 16.1 | 0.00 | 0.00 | 0.00 | 47 | 1007.1 |
| 20260504184856 | 18 | 310 | 1.6 | 9.7 | 0.00 | 0.00 | 0.00 | 45 | 1007.2 |
| 20260504184627 | 18 | 355 | 3.2 | 11.3 | 0.00 | 0.00 | 0.00 | 48 | 1007.2 |
| 20260504183853 | 17 | 227 | 1.6 | 11.3 | 0.00 | 0.00 | 0.00 | 48 | 1007.3 |
| 20260504183354 | 17 | 314 | 1.6 | 11.3 | 0.00 | 0.00 | 0.00 | 48 | 1007.3 |
| 20260504182854 | 16 | 351 | 1.6 | 11.3 | 0.00 | 0.00 | 0.00 | 49 | 1007.3 |
| 20260504182353 | 16 | 167 | 0.0 | 9.7 | 0.00 | 0.00 | 0.00 | 51 | 1007.6 |
| 20260504181853 | 16 | 355 | 1.6 | 9.7 | 0.00 | 0.00 | 0.00 | 55 | 1007.6 |
| 20260504181624 | 16 | 355 | 1.6 | 11.3 | 0.00 | 0.00 | 0.00 | 50 | 1007.7 |
| 20260504181119 | 16 | 315 | 3.2 | 14.5 | 0.00 | 0.00 | 0.00 | 50 | 1007.7 |
| 20260504180347 | 16 | 316 | 3.2 | 14.5 | 0.00 | 0.00 | 0.00 | 49 | 1007.7 |
| 20260504180118 | 16 | 234 | 3.2 | 16.1 | 0.00 | 0.00 | 0.00 | 48 | 1007.8 |
| 20260504175347 | 17 | 88 | 3.2 | 16.1 | 0.00 | 0.00 | 0.00 | 50 | 1007.9 |
| 20260504174847 | 17 | 346 | 3.2 | 11.3 | 0.00 | 0.00 | 0.00 | 48 | 1007.9 |
| 20260504174349 | 17 | 62 | 3.2 | 11.3 | 0.00 | 0.00 | 0.00 | 53 | 1007.8 |
| 20260504173845 | 16 | 91 | 4.8 | 11.3 | 0.00 | 0.00 | 0.00 | 53 | 1008.2 |
| 20260504173617 | 16 | 96 | 4.8 | 11.3 | 0.00 | 0.00 | 0.00 | 54 | 1008.0 |
| 20260504172846 | 15 | 77 | 1.6 | 9.7 | 0.00 | 0.00 | 0.00 | 58 | 1008.2 |
| 20260504172342 | 14 | 94 | 0.0 | 6.4 | 0.00 | 0.00 | 0.00 | 61 | 1008.4 |
| 20260504171841 | 12 | 271 | 0.0 | 3.2 | 0.00 | 0.00 | 0.00 | 67 | 1008.5 |
| 20260504171611 | 12 | 271 | 0.0 | 3.2 | 0.00 | 0.00 | 0.00 | 71 | 1008.5 |
| 20260504171109 | 12 | 271 | 0.0 | 3.2 | 0.00 | 0.00 | 0.00 | 64 | 1008.4 |
| 20260504170339 | 12 | 305 | 0.0 | 3.2 | 0.00 | 0.00 | 0.00 | 67 | 1008.4 |
| 20260504150805 | 13 | 34 | 1.6 | 9.7 | 0.00 | 0.00 | 0.00 | 55 | 1008.3 |
| 20260504150537 | 13 | 55 | 3.2 | 9.7 | 0.00 | 0.00 | 0.00 | 59 | 1008.1 |
| 20260504141300 | 13 | 327 | 1.6 | 11.3 | 0.00 | 0.03 | 0.00 | 59 | 1008.3 |
| 20260504140801 | 13 | 208 | 3.2 | 14.5 | 0.00 | 0.03 | 0.00 | 59 | 1008.3 |
| 20260504130750 | 11 | 300 | 3.2 | 9.7 | 0.00 | 0.03 | 0.00 | 69 | 1008.9 |
| 20260504130248 | 11 | 157 | 4.8 | 12.9 | 0.00 | 0.03 | 0.00 | 69 | 1009.0 |
| 20260504120237 | 7 | 117 | 1.6 | 3.2 | 0.00 | 0.03 | 0.00 | 84 | 1009.6 |
| 20260504110226 | 4 | 317 | 0.0 | 0.0 | 0.00 | 0.03 | 0.00 | 92 | 1009.8 |
| 20260504100205 | 5 | 233 | 1.6 | 6.4 | 0.00 | 0.03 | 0.00 | 84 | 1009.8 |
| 20260504081639 | 4 | 333 | 0.0 | 3.2 | 0.00 | 0.03 | 0.00 | 84 | 1010.0 |
| 20260504081138 | 4 | 333 | 0.0 | 3.2 | 0.00 | 0.03 | 0.00 | 82 | 1010.1 |
| 20260504080635 | 4 | 333 | 0.0 | 1.6 | 0.00 | 0.03 | 0.00 | 82 | 1010.1 |
| 20260504080137 | 4 | 333 | 0.0 | 3.2 | 0.00 | 0.03 | 0.00 | 82 | 1010.2 |
| 20260504070125 | 5 | 79 | 0.0 | 3.2 | 0.00 | 0.03 | 0.00 | 81 | 1010.2 |
| 20260504060108 | 2 | 227 | 0.0 | 3.2 | 0.00 | 0.03 | 0.00 | 83 | 1009.9 |
| 20260504050331 | 2 | 286 | 0.0 | 0.0 | 0.00 | 0.03 | 0.00 | 80 | 1010.2 |
| 20260504045831 | 2 | 286 | 0.0 | 0.0 | 0.00 | 0.03 | 0.00 | 79 | 1010.1 |
| 20260504045100 | 2 | 286 | 0.0 | 0.0 | 0.00 | 0.03 | 0.00 | 80 | 1010.2 |
| 20260504044600 | 2 | 286 | 0.0 | 0.0 | 0.00 | 0.03 | 0.00 | 80 | 1010.2 |
| 20260504044059 | 2 | 286 | 0.0 | 0.0 | 0.00 | 0.03 | 0.00 | 80 | 1010.4 |
| 20260504043559 | 2 | 286 | 0.0 | 0.0 | 0.00 | 0.03 | 0.00 | 81 | 1010.4 |
| 20260504043058 | 2 | 286 | 0.0 | 0.0 | 0.00 | 0.03 | 0.00 | 82 | 1010.3 |
| 20260504042826 | 2 | 286 | 0.0 | 0.0 | 0.00 | 0.03 | 0.00 | 80 | 1010.4 |
| 20260504042056 | 2 | 286 | 0.0 | 0.0 | 0.00 | 0.03 | 0.00 | 81 | 1010.3 |
| 20260504041555 | 2 | 286 | 0.0 | 0.0 | 0.00 | 0.03 | 0.00 | 79 | 1010.4 |
| 20260504041325 | 2 | 286 | 0.0 | 0.0 | 0.00 | 0.03 | 0.00 | 80 | 1010.3 |
| 20260504040555 | 2 | 286 | 0.0 | 0.0 | 0.00 | 0.03 | 0.00 | 82 | 1010.3 |
| 20260504040051 | 2 | 286 | 0.0 | 1.6 | 0.00 | 0.03 | 0.00 | 80 | 1010.2 |
| 20260504035549 | 2 | 286 | 0.0 | 3.2 | 0.00 | 0.03 | 0.03 | 80 | 1010.2 |
| 20260504035050 | 2 | 286 | 0.0 | 3.2 | 0.00 | 0.03 | 0.03 | 81 | 1010.2 |
| 20260504034047 | 2 | 286 | 0.0 | 0.0 | 0.00 | 0.03 | 0.03 | 82 | 1010.2 |
| 20260504033817 | 2 | 286 | 0.0 | 1.6 | 0.00 | 0.03 | 0.03 | 81 | 1010.1 |
| 20260504033041 | 2 | 286 | 1.6 | 3.2 | 0.00 | 0.03 | 0.03 | 79 | 1010.1 |
| 20260504032540 | 2 | 286 | 1.6 | 3.2 | 0.00 | 0.03 | 0.03 | 80 | 1010.1 |
| 20260504032311 | 2 | 286 | 1.6 | 3.2 | 0.00 | 0.03 | 0.03 | 81 | 1010.1 |
| 20260504031810 | 2 | 286 | 0.0 | 3.2 | 0.00 | 0.03 | 0.03 | 83 | 1010.2 |
| 20260504031310 | 2 | 286 | 0.0 | 3.2 | 0.00 | 0.03 | 0.03 | 78 | 1010.2 |
| 20260504030539 | 2 | 286 | 1.6 | 3.2 | 0.00 | 0.03 | 0.03 | 81 | 1010.1 |
| 20260504030038 | 2 | 286 | 1.6 | 3.2 | 0.00 | 0.03 | 0.03 | 81 | 1010.2 |
| 20260504025536 | 2 | 286 | 1.6 | 3.2 | 0.00 | 0.03 | 0.03 | 82 | 1010.2 |
| 20260504025036 | 2 | 286 | 1.6 | 3.2 | 0.00 | 0.03 | 0.03 | 83 | 1010.2 |
| 20260504024805 | 2 | 286 | 1.6 | 3.2 | 0.00 | 0.03 | 0.03 | 83 | 1010.1 |
| 20260504024033 | 2 | 286 | 0.0 | 3.2 | 0.00 | 0.03 | 0.03 | 82 | 1010.2 |
| 20260504023534 | 2 | 286 | 0.0 | 0.0 | 0.00 | 0.03 | 0.03 | 79 | 1010.2 |
| 20260504022759 | 2 | 286 | 1.6 | 3.2 | 0.00 | 0.03 | 0.03 | 80 | 1010.3 |
| 20260504022027 | 2 | 286 | 3.2 | 3.2 | 0.00 | 0.03 | 0.03 | 81 | 1010.3 |
| 20260504021527 | 2 | 286 | 3.2 | 3.2 | 0.00 | 0.03 | 0.03 | 79 | 1010.3 |
| 20260504021026 | 2 | 286 | 1.6 | 3.2 | 0.00 | 0.03 | 0.03 | 79 | 1010.3 |
| 20260504020528 | 2 | 286 | 1.6 | 3.2 | 0.00 | 0.03 | 0.03 | 78 | 1010.3 |
| 20260504020021 | 3 | 286 | 1.6 | 3.2 | 0.00 | 0.03 | 0.03 | 78 | 1010.4 |
| 20260504015521 | 3 | 286 | 3.2 | 4.8 | 0.00 | 0.03 | 0.03 | 79 | 1010.2 |
| 20260504015253 | 3 | 286 | 3.2 | 4.8 | 0.00 | 0.03 | 0.03 | 78 | 1010.2 |
| 20260504014021 | 3 | 286 | 3.2 | 4.8 | 0.00 | 0.03 | 0.03 | 81 | 1010.3 |
| 20260504013522 | 3 | 286 | 3.2 | 4.8 | 0.00 | 0.03 | 0.03 | 77 | 1010.3 |
| 20260504013248 | 3 | 286 | 3.2 | 4.8 | 0.00 | 0.03 | 0.03 | 78 | 1010.2 |
| 20260504012515 | 3 | 286 | 3.2 | 4.8 | 0.00 | 0.03 | 0.03 | 77 | 1010.2 |
| 20260504012017 | 3 | 286 | 3.2 | 4.8 | 0.00 | 0.03 | 0.03 | 77 | 1010.2 |
| 20260504011515 | 3 | 286 | 3.2 | 4.8 | 0.00 | 0.03 | 0.03 | 79 | 1010.1 |
| 20260504011247 | 3 | 286 | 3.2 | 4.8 | 0.00 | 0.03 | 0.03 | 78 | 1010.1 |
| 20260504010516 | 3 | 279 | 3.2 | 4.8 | 0.00 | 0.03 | 0.03 | 77 | 1009.9 |
| 20260504010011 | 3 | 279 | 3.2 | 4.8 | 0.00 | 0.03 | 0.03 | 77 | 1009.9 |
| 20260504005510 | 3 | 279 | 3.2 | 4.8 | 0.00 | 0.03 | 0.03 | 77 | 1009.8 |
| 20260504005008 | 3 | 279 | 3.2 | 4.8 | 0.00 | 0.03 | 0.03 | 78 | 1009.8 |
| 20260504004508 | 3 | 279 | 3.2 | 4.8 | 0.00 | 0.03 | 0.03 | 78 | 1009.8 |
| 20260504004008 | 3 | 279 | 3.2 | 4.8 | 0.00 | 0.03 | 0.03 | 76 | 1009.8 |
| 20260504003510 | 4 | 279 | 3.2 | 4.8 | 0.00 | 0.03 | 0.03 | 74 | 1009.8 |
| 20260504003235 | 4 | 279 | 3.2 | 4.8 | 0.00 | 0.05 | 0.03 | 76 | 1009.8 |
| 20260504002504 | 4 | 277 | 3.2 | 4.8 | 0.00 | 0.05 | 0.03 | 75 | 1009.7 |
| 20260504002005 | 4 | 267 | 3.2 | 4.8 | 0.00 | 0.05 | 0.03 | 75 | 1009.6 |
| 20260504001504 | 4 | 266 | 3.2 | 4.8 | 0.00 | 0.05 | 0.03 | 75 | 1009.6 |
| 20260504000503 | 5 | 243 | 3.2 | 4.8 | 0.00 | 0.05 | 0.03 | 73 | 1009.5 |
| 20260504000000 | 5 | 240 | 3.2 | 4.8 | 0.00 | 0.05 | 0.03 | 73 | 1009.4 |
| 20260503235500 | 5 | 240 | 3.2 | 4.8 | 0.00 | 0.05 | 0.03 | 71 | 1009.4 |
| 20260503235001 | 5 | 240 | 3.2 | 4.8 | 0.00 | 0.05 | 0.03 | 67 | 1009.4 |
| 20260503234458 | 5 | 240 | 1.6 | 4.8 | 0.00 | 0.05 | 0.03 | 67 | 1009.3 |
| 20260503233956 | 6 | 240 | 1.6 | 3.2 | 0.00 | 0.05 | 0.03 | 66 | 1009.3 |
| 20260503233727 | 6 | 240 | 1.6 | 4.8 | 0.00 | 0.08 | 0.03 | 64 | 1009.2 |
| 20260503232951 | 6 | 240 | 1.6 | 4.8 | 0.00 | 0.10 | 0.03 | 60 | 1009.2 |
| 20260503232452 | 7 | 240 | 1.6 | 4.8 | 0.00 | 0.18 | 0.03 | 59 | 1009.1 |
| 20260503232223 | 7 | 221 | 1.6 | 4.8 | 0.00 | 0.33 | 0.03 | 59 | 1009.2 |
| 20260503231721 | 7 | 113 | 3.2 | 12.9 | 0.00 | 0.41 | 0.03 | 57 | 1009.1 |
| 20260503230947 | 7 | 298 | 3.2 | 12.9 | 0.00 | 0.41 | 0.03 | 53 | 1009.1 |
| 20260503230446 | 7 | 254 | 1.6 | 11.3 | 0.00 | 0.41 | 0.03 | 54 | 1009.1 |
| 20260503225943 | 7 | 181 | 1.6 | 8.0 | 0.00 | 0.41 | 0.03 | 58 | 1009.2 |
| 20260503225442 | 8 | 181 | 0.0 | 8.0 | 0.00 | 0.41 | 0.03 | 57 | 1009.2 |
| 20260503224941 | 8 | 330 | 1.6 | 8.0 | 0.00 | 0.41 | 0.03 | 58 | 1009.1 |
| 20260503224439 | 8 | 332 | 1.6 | 8.0 | 0.00 | 0.41 | 0.03 | 55 | 1009.1 |
| 20260503223939 | 8 | 355 | 1.6 | 6.4 | 0.00 | 0.41 | 0.03 | 53 | 1009.1 |
| 20260503223438 | 8 | 53 | 1.6 | 6.4 | 0.00 | 0.41 | 0.03 | 56 | 1009.1 |
| 20260503222935 | 8 | 53 | 1.6 | 8.0 | 0.00 | 0.41 | 0.03 | 54 | 1009.1 |
| 20260503222435 | 8 | 173 | 1.6 | 8.0 | 0.00 | 0.41 | 0.03 | 50 | 1009.0 |
| 20260503222207 | 8 | 45 | 3.2 | 8.0 | 0.00 | 0.41 | 0.03 | 50 | 1008.9 |
| 20260503221432 | 8 | 40 | 3.2 | 6.4 | 0.00 | 0.41 | 0.03 | 50 | 1008.9 |
| 20260503220932 | 8 | 55 | 3.2 | 8.0 | 0.00 | 0.41 | 0.03 | 52 | 1008.9 |
| 20260503220703 | 8 | 17 | 3.2 | 8.0 | 0.00 | 0.41 | 0.03 | 50 | 1008.8 |
| 20260503215931 | 8 | 133 | 1.6 | 6.4 | 0.00 | 0.41 | 0.03 | 55 | 1008.9 |
| 20260503215431 | 8 | 61 | 1.6 | 6.4 | 0.00 | 0.41 | 0.03 | 53 | 1008.8 |
| 20260503214932 | 8 | 61 | 1.6 | 6.4 | 0.00 | 0.41 | 0.03 | 52 | 1008.8 |
| 20260503214428 | 8 | 17 | 1.6 | 6.4 | 0.00 | 0.41 | 0.03 | 52 | 1008.8 |
| 20260503213928 | 8 | 51 | 1.6 | 6.4 | 0.00 | 0.41 | 0.03 | 53 | 1008.9 |
| 20260503213428 | 8 | 228 | 1.6 | 6.4 | 0.00 | 0.41 | 0.03 | 57 | 1009.0 |
| 20260503212927 | 8 | 234 | 1.6 | 6.4 | 0.00 | 0.41 | 0.03 | 55 | 1008.9 |